| time (UTC) | temp C | wind direction | speed KPH | gust KPH | rain 1hr cm | rain 24hr cm | rain mn cm | humidity % | barometer mb |
| 20260505195843 | 27 | 170 | 8.0 | 32.2 | 0.00 | 0.00 | 0.00 | 29 | 1009.7 |
| 20260505195332 | 27 | 252 | 11.3 | 32.2 | 0.00 | 0.00 | 0.00 | 29 | 1009.9 |
| 20260505194838 | 27 | 176 | 9.7 | 27.4 | 0.00 | 0.00 | 0.00 | 29 | 1009.9 |
| 20260505194323 | 27 | 186 | 12.9 | 32.2 | 0.00 | 0.00 | 0.00 | 30 | 1009.9 |
| 20260505193850 | 27 | 159 | 14.5 | 32.2 | 0.00 | 0.00 | 0.00 | 30 | 1009.9 |
| 20260505193356 | 28 | 185 | 12.9 | 30.6 | 0.00 | 0.00 | 0.00 | 30 | 1009.9 |
| 20260505192821 | 27 | 202 | 11.3 | 30.6 | 0.00 | 0.00 | 0.00 | 31 | 1010.0 |
| 20260505192327 | 28 | 203 | 4.8 | 27.4 | 0.00 | 0.00 | 0.00 | 33 | 1010.1 |
| 20260505191831 | 27 | 159 | 6.4 | 24.1 | 0.00 | 0.00 | 0.00 | 32 | 1010.1 |
| 20260505191336 | 27 | 211 | 6.4 | 25.7 | 0.00 | 0.00 | 0.00 | 31 | 1010.2 |
| 20260505190840 | 27 | 196 | 8.0 | 25.7 | 0.00 | 0.00 | 0.00 | 31 | 1010.1 |
| 20260505190346 | 27 | 144 | 8.0 | 22.5 | 0.00 | 0.00 | 0.00 | 32 | 1010.2 |
| 20260505185821 | 27 | 210 | 6.4 | 32.2 | 0.00 | 0.00 | 0.00 | 32 | 1010.2 |
| 20260505185327 | 27 | 218 | 14.5 | 35.4 | 0.00 | 0.00 | 0.00 | 30 | 1010.5 |
| 20260505184831 | 27 | 184 | 9.7 | 32.2 | 0.00 | 0.00 | 0.00 | 32 | 1010.3 |
| 20260505184357 | 27 | 242 | 12.9 | 25.7 | 0.00 | 0.00 | 0.00 | 33 | 1010.4 |
| 20260505183825 | 27 | 138 | 6.4 | 22.5 | 0.00 | 0.00 | 0.00 | 32 | 1010.5 |
| 20260505183329 | 27 | 217 | 11.3 | 22.5 | 0.00 | 0.00 | 0.00 | 33 | 1010.6 |
| 20260505182854 | 27 | 176 | 8.0 | 24.1 | 0.00 | 0.00 | 0.00 | 32 | 1010.6 |
| 20260505182320 | 27 | 231 | 9.7 | 24.1 | 0.00 | 0.00 | 0.00 | 34 | 1010.8 |
| 20260505181846 | 27 | 239 | 8.0 | 19.3 | 0.00 | 0.00 | 0.00 | 36 | 1010.9 |
| 20260505181331 | 27 | 192 | 9.7 | 27.4 | 0.00 | 0.00 | 0.00 | 36 | 1010.9 |
| 20260505180836 | 27 | 132 | 12.9 | 30.6 | 0.00 | 0.00 | 0.00 | 36 | 1011.1 |
| 20260505180321 | 27 | 169 | 8.0 | 30.6 | 0.00 | 0.00 | 0.00 | 36 | 1011.2 |
| 20260505175837 | 27 | 248 | 8.0 | 25.7 | 0.00 | 0.00 | 0.00 | 36 | 1011.2 |
| 20260505175342 | 26 | 152 | 8.0 | 30.6 | 0.00 | 0.00 | 0.00 | 34 | 1011.2 |
| 20260505174827 | 26 | 231 | 11.3 | 30.6 | 0.00 | 0.00 | 0.00 | 34 | 1011.3 |
| 20260505174353 | 27 | 219 | 9.7 | 30.6 | 0.00 | 0.00 | 0.00 | 34 | 1011.3 |
| 20260505173839 | 26 | 202 | 6.4 | 30.6 | 0.00 | 0.00 | 0.00 | 35 | 1011.4 |
| 20260505173330 | 26 | 173 | 9.7 | 25.7 | 0.00 | 0.00 | 0.00 | 35 | 1011.5 |
| 20260505172836 | 26 | 216 | 12.9 | 25.7 | 0.00 | 0.00 | 0.00 | 32 | 1011.5 |
| 20260505172343 | 26 | 206 | 8.0 | 22.5 | 0.00 | 0.00 | 0.00 | 36 | 1011.5 |
| 20260505171827 | 26 | 213 | 8.0 | 19.3 | 0.00 | 0.00 | 0.00 | 34 | 1011.6 |
| 20260505171334 | 26 | 173 | 8.0 | 19.3 | 0.00 | 0.00 | 0.00 | 36 | 1011.7 |
| 20260505170859 | 26 | 240 | 8.0 | 22.5 | 0.00 | 0.00 | 0.00 | 38 | 1011.8 |
| 20260505170324 | 26 | 262 | 11.3 | 25.7 | 0.00 | 0.00 | 0.00 | 38 | 1012.0 |
| 20260505165838 | 26 | 229 | 12.9 | 25.7 | 0.00 | 0.00 | 0.00 | 39 | 1012.0 |
| 20260505165343 | 26 | 206 | 9.7 | 25.7 | 0.00 | 0.00 | 0.00 | 38 | 1012.0 |
| 20260505164828 | 26 | 103 | 6.4 | 19.3 | 0.00 | 0.00 | 0.00 | 38 | 1012.0 |
| 20260505164355 | 26 | 136 | 9.7 | 19.3 | 0.00 | 0.00 | 0.00 | 40 | 1012.2 |
| 20260505163840 | 26 | 241 | 8.0 | 16.1 | 0.00 | 0.00 | 0.00 | 39 | 1012.3 |
| 20260505163323 | 26 | 197 | 6.4 | 24.1 | 0.00 | 0.00 | 0.00 | 41 | 1012.3 |
| 20260505162828 | 26 | 219 | 9.7 | 24.1 | 0.00 | 0.00 | 0.00 | 41 | 1012.3 |
| 20260505162355 | 26 | 214 | 9.7 | 22.5 | 0.00 | 0.00 | 0.00 | 42 | 1012.3 |
| 20260505161824 | 25 | 214 | 8.0 | 20.9 | 0.00 | 0.00 | 0.00 | 41 | 1012.4 |
| 20260505161330 | 25 | 159 | 11.3 | 22.5 | 0.00 | 0.00 | 0.00 | 42 | 1012.4 |
| 20260505160835 | 25 | 230 | 11.3 | 20.9 | 0.00 | 0.00 | 0.00 | 41 | 1012.4 |
| 20260505160340 | 25 | 232 | 12.9 | 20.9 | 0.00 | 0.00 | 0.00 | 41 | 1012.5 |
| 20260505153320 | 25 | 155 | 8.0 | 22.5 | 0.00 | 0.00 | 0.00 | 45 | 1012.5 |
| 20260505152847 | 25 | 284 | 11.3 | 22.5 | 0.00 | 0.00 | 0.00 | 42 | 1012.6 |
| 20260505152332 | 25 | 195 | 4.8 | 16.1 | 0.00 | 0.00 | 0.00 | 45 | 1012.4 |
| 20260505151838 | 25 | 203 | 6.4 | 16.1 | 0.00 | 0.00 | 0.00 | 42 | 1012.4 |
| 20260505151327 | 24 | 250 | 4.8 | 19.3 | 0.00 | 0.00 | 0.00 | 45 | 1012.4 |
| 20260505150832 | 24 | 248 | 8.0 | 19.3 | 0.00 | 0.00 | 0.00 | 45 | 1012.4 |
| 20260505150339 | 24 | 272 | 6.4 | 19.3 | 0.00 | 0.00 | 0.00 | 46 | 1012.5 |
| 20260505140343 | 22 | 255 | 3.2 | 14.5 | 0.00 | 0.00 | 0.00 | 51 | 1012.5 |
| 20260505124823 | 17 | 249 | 6.4 | 14.5 | 0.00 | 0.00 | 0.00 | 61 | 1013.3 |
| 20260505124329 | 17 | 234 | 1.6 | 8.0 | 0.00 | 0.00 | 0.00 | 61 | 1013.3 |
| 20260505123835 | 17 | 252 | 1.6 | 8.0 | 0.00 | 0.00 | 0.00 | 62 | 1013.3 |
| 20260505123321 | 17 | 225 | 1.6 | 8.0 | 0.00 | 0.00 | 0.00 | 62 | 1013.3 |
| 20260505122847 | 17 | 245 | 1.6 | 11.3 | 0.00 | 0.00 | 0.00 | 63 | 1013.3 |
| 20260505122351 | 17 | 273 | 0.0 | 11.3 | 0.00 | 0.00 | 0.00 | 63 | 1013.3 |
| 20260505121835 | 17 | 216 | 4.8 | 8.0 | 0.00 | 0.00 | 0.00 | 63 | 1013.2 |
| 20260505121323 | 16 | 238 | 6.4 | 12.9 | 0.00 | 0.00 | 0.00 | 63 | 1013.0 |
| 20260505120833 | 16 | 233 | 6.4 | 11.3 | 0.00 | 0.00 | 0.00 | 63 | 1013.0 |
| 20260505120338 | 16 | 252 | 4.8 | 9.7 | 0.00 | 0.00 | 0.00 | 64 | 1013.0 |
| 20260505115834 | 16 | 237 | 1.6 | 6.4 | 0.00 | 0.00 | 0.00 | 65 | 1013.0 |
| 20260505115339 | 16 | 208 | 1.6 | 8.0 | 0.00 | 0.00 | 0.00 | 64 | 1013.0 |
| 20260505114823 | 16 | 206 | 3.2 | 11.3 | 0.00 | 0.00 | 0.00 | 65 | 1012.8 |
| 20260505114328 | 16 | 250 | 3.2 | 11.3 | 0.00 | 0.00 | 0.00 | 65 | 1012.9 |
| 20260505113854 | 15 | 221 | 1.6 | 6.4 | 0.00 | 0.00 | 0.00 | 66 | 1012.9 |
| 20260505113338 | 15 | 213 | 1.6 | 6.4 | 0.00 | 0.00 | 0.00 | 66 | 1012.9 |
| 20260505112823 | 15 | 242 | 3.2 | 11.3 | 0.00 | 0.00 | 0.00 | 66 | 1012.8 |
| 20260505112329 | 15 | 263 | 4.8 | 11.3 | 0.00 | 0.00 | 0.00 | 66 | 1012.7 |
| 20260505111835 | 15 | 240 | 1.6 | 12.9 | 0.00 | 0.00 | 0.00 | 66 | 1012.8 |
| 20260505111323 | 15 | 170 | 1.6 | 12.9 | 0.00 | 0.00 | 0.00 | 67 | 1012.7 |
| 20260505110829 | 15 | 212 | 1.6 | 9.7 | 0.00 | 0.00 | 0.00 | 67 | 1012.7 |
| 20260505110334 | 15 | 209 | 1.6 | 12.9 | 0.00 | 0.00 | 0.00 | 67 | 1012.6 |
| 20260505101829 | 14 | 219 | 0.0 | 6.4 | 0.00 | 0.00 | 0.00 | 69 | 1012.1 |
| 20260505101335 | 14 | 207 | 1.6 | 6.4 | 0.00 | 0.00 | 0.00 | 69 | 1012.2 |
| 20260505100846 | 15 | 200 | 1.6 | 6.4 | 0.00 | 0.00 | 0.00 | 68 | 1012.2 |
| 20260505100331 | 15 | 219 | 0.0 | 4.8 | 0.00 | 0.00 | 0.00 | 68 | 1012.1 |
| 20260505095826 | 15 | 219 | 0.0 | 3.2 | 0.00 | 0.00 | 0.00 | 68 | 1012.0 |
| 20260505095330 | 15 | 219 | 1.6 | 8.0 | 0.00 | 0.00 | 0.00 | 68 | 1012.0 |
| 20260505094836 | 15 | 219 | 1.6 | 8.0 | 0.00 | 0.00 | 0.00 | 68 | 1012.0 |
| 20260505094321 | 15 | 217 | 0.0 | 6.4 | 0.00 | 0.00 | 0.00 | 68 | 1011.9 |
| 20260505093827 | 15 | 217 | 1.6 | 8.0 | 0.00 | 0.00 | 0.00 | 68 | 1011.9 |
| 20260505093332 | 15 | 238 | 3.2 | 11.3 | 0.00 | 0.00 | 0.00 | 68 | 1011.9 |
| 20260505092839 | 15 | 244 | 1.6 | 11.3 | 0.00 | 0.00 | 0.00 | 68 | 1011.8 |
| 20260505092345 | 15 | 239 | 1.6 | 11.3 | 0.00 | 0.00 | 0.00 | 68 | 1011.9 |
| 20260505091829 | 15 | 223 | 1.6 | 11.3 | 0.00 | 0.00 | 0.00 | 68 | 1011.9 |
| 20260505091336 | 15 | 206 | 1.6 | 8.0 | 0.00 | 0.00 | 0.00 | 68 | 1011.9 |
| 20260505090826 | 15 | 269 | 0.0 | 6.4 | 0.00 | 0.00 | 0.00 | 68 | 1011.8 |
| 20260505090330 | 15 | 223 | 0.0 | 3.2 | 0.00 | 0.00 | 0.00 | 68 | 1011.9 |
| 20260505085826 | 15 | 222 | 0.0 | 4.8 | 0.00 | 0.00 | 0.00 | 67 | 1011.8 |
| 20260505085331 | 15 | 223 | 1.6 | 4.8 | 0.00 | 0.00 | 0.00 | 67 | 1011.9 |
| 20260505084838 | 15 | 223 | 1.6 | 6.4 | 0.00 | 0.00 | 0.00 | 67 | 1011.9 |
| 20260505084324 | 15 | 218 | 1.6 | 6.4 | 0.00 | 0.00 | 0.00 | 67 | 1011.8 |
| 20260505083831 | 15 | 210 | 1.6 | 8.0 | 0.00 | 0.00 | 0.00 | 66 | 1011.8 |
| 20260505083338 | 15 | 227 | 1.6 | 8.0 | 0.00 | 0.00 | 0.00 | 66 | 1011.8 |
| 20260505082822 | 16 | 209 | 0.0 | 6.4 | 0.00 | 0.00 | 0.00 | 66 | 1011.8 |
| 20260505082329 | 16 | 209 | 1.6 | 8.0 | 0.00 | 0.00 | 0.00 | 66 | 1011.9 |
| 20260505081856 | 16 | 215 | 4.8 | 12.9 | 0.00 | 0.00 | 0.00 | 66 | 1011.8 |
| 20260505081324 | 16 | 213 | 3.2 | 12.9 | 0.00 | 0.00 | 0.00 | 66 | 1011.7 |
| 20260505080828 | 16 | 216 | 1.6 | 6.4 | 0.00 | 0.00 | 0.00 | 66 | 1011.7 |
| 20260505080334 | 16 | 200 | 0.0 | 6.4 | 0.00 | 0.00 | 0.00 | 66 | 1011.7 |
| 20260505075830 | 16 | 192 | 1.6 | 6.4 | 0.00 | 0.00 | 0.00 | 66 | 1011.5 |
| 20260505075335 | 16 | 190 | 0.0 | 6.4 | 0.00 | 0.00 | 0.00 | 66 | 1011.4 |
| 20260505074821 | 16 | 186 | 0.0 | 6.4 | 0.00 | 0.00 | 0.00 | 66 | 1011.5 |
| 20260505074327 | 16 | 202 | 0.0 | 6.4 | 0.00 | 0.00 | 0.00 | 66 | 1011.4 |
| 20260505073832 | 16 | 199 | 0.0 | 6.4 | 0.00 | 0.00 | 0.00 | 66 | 1011.4 |
| 20260505073338 | 16 | 239 | 0.0 | 6.4 | 0.00 | 0.00 | 0.00 | 67 | 1011.3 |
| 20260505072823 | 16 | 240 | 0.0 | 6.4 | 0.00 | 0.00 | 0.00 | 66 | 1011.3 |
| 20260505072333 | 15 | 210 | 0.0 | 4.8 | 0.00 | 0.00 | 0.00 | 67 | 1011.3 |
| 20260505071839 | 15 | 209 | 0.0 | 6.4 | 0.00 | 0.00 | 0.00 | 67 | 1011.2 |
| 20260505071325 | 15 | 211 | 0.0 | 3.2 | 0.00 | 0.00 | 0.00 | 68 | 1011.3 |
| 20260505070831 | 15 | 211 | 0.0 | 0.0 | 0.00 | 0.00 | 0.00 | 68 | 1011.2 |
| 20260505070335 | 15 | 211 | 1.6 | 4.8 | 0.00 | 0.00 | 0.00 | 69 | 1011.3 |
| 20260505065853 | 15 | 211 | 0.0 | 1.6 | 0.00 | 0.00 | 0.00 | 69 | 1011.3 |
| 20260505065336 | 15 | 211 | 0.0 | 3.2 | 0.00 | 0.00 | 0.00 | 69 | 1011.4 |
| 20260505064821 | 15 | 211 | 0.0 | 3.2 | 0.00 | 0.00 | 0.00 | 69 | 1011.3 |
| 20260505064325 | 15 | 211 | 0.0 | 3.2 | 0.00 | 0.00 | 0.00 | 67 | 1011.4 |
| 20260505063853 | 15 | 211 | 0.0 | 3.2 | 0.00 | 0.00 | 0.00 | 67 | 1011.4 |
| 20260505063338 | 16 | 211 | 0.0 | 3.2 | 0.00 | 0.00 | 0.00 | 66 | 1011.6 |
| 20260505062825 | 16 | 211 | 0.0 | 3.2 | 0.00 | 0.00 | 0.00 | 66 | 1011.5 |
| 20260505062335 | 16 | 211 | 0.0 | 3.2 | 0.00 | 0.00 | 0.00 | 65 | 1011.5 |
| 20260505061822 | 16 | 211 | 0.0 | 4.8 | 0.00 | 0.00 | 0.00 | 64 | 1011.5 |
| 20260505061327 | 16 | 211 | 0.0 | 4.8 | 0.00 | 0.00 | 0.00 | 64 | 1011.5 |
| 20260505060855 | 16 | 211 | 1.6 | 3.2 | 0.00 | 0.00 | 0.00 | 63 | 1011.4 |
| 20260505060321 | 16 | 211 | 0.0 | 3.2 | 0.00 | 0.00 | 0.00 | 62 | 1011.4 |
| 20260505055836 | 17 | 211 | 0.0 | 6.4 | 0.00 | 0.00 | 0.00 | 62 | 1011.6 |
| 20260505055321 | 17 | 211 | 1.6 | 6.4 | 0.00 | 0.00 | 0.00 | 62 | 1011.6 |
| 20260505054827 | 17 | 213 | 1.6 | 6.4 | 0.00 | 0.00 | 0.00 | 61 | 1011.6 |
| 20260505054334 | 17 | 217 | 0.0 | 9.7 | 0.00 | 0.00 | 0.00 | 61 | 1011.6 |
| 20260505053900 | 17 | 217 | 1.6 | 9.7 | 0.00 | 0.00 | 0.00 | 61 | 1011.6 |
| 20260505053325 | 17 | 212 | 1.6 | 9.7 | 0.00 | 0.00 | 0.00 | 60 | 1011.7 |
| 20260505052830 | 17 | 218 | 1.6 | 12.9 | 0.00 | 0.00 | 0.00 | 60 | 1011.7 |
| 20260505052320 | 17 | 222 | 1.6 | 11.3 | 0.00 | 0.00 | 0.00 | 60 | 1011.7 |
| 20260505051827 | 17 | 219 | 4.8 | 11.3 | 0.00 | 0.00 | 0.00 | 60 | 1011.8 |
| 20260505051355 | 17 | 214 | 1.6 | 9.7 | 0.00 | 0.00 | 0.00 | 59 | 1011.7 |
| 20260505050839 | 17 | 205 | 4.8 | 11.3 | 0.00 | 0.00 | 0.00 | 59 | 1011.5 |
| 20260505050325 | 17 | 215 | 3.2 | 14.5 | 0.00 | 0.00 | 0.00 | 58 | 1011.7 |
| 20260505041334 | 18 | 223 | 0.0 | 8.0 | 0.00 | 0.00 | 0.00 | 56 | 1011.4 |
| 20260505040838 | 18 | 207 | 1.6 | 8.0 | 0.00 | 0.00 | 0.00 | 56 | 1011.4 |
| 20260505040324 | 18 | 221 | 1.6 | 8.0 | 0.00 | 0.00 | 0.00 | 56 | 1011.6 |
| 20260505035821 | 17 | 236 | 3.2 | 8.0 | 0.00 | 0.00 | 0.00 | 56 | 1011.5 |
| 20260505035326 | 17 | 211 | 0.0 | 8.0 | 0.00 | 0.00 | 0.00 | 56 | 1011.4 |
| 20260505034831 | 17 | 252 | 4.8 | 11.3 | 0.00 | 0.00 | 0.00 | 56 | 1011.4 |
| 20260505034337 | 17 | 204 | 3.2 | 12.9 | 0.00 | 0.00 | 0.00 | 56 | 1011.4 |
| 20260505033823 | 17 | 222 | 3.2 | 12.9 | 0.00 | 0.00 | 0.00 | 56 | 1011.3 |
| 20260505033328 | 17 | 209 | 1.6 | 8.0 | 0.00 | 0.00 | 0.00 | 56 | 1011.5 |
| 20260505032835 | 17 | 205 | 1.6 | 8.0 | 0.00 | 0.00 | 0.00 | 56 | 1011.4 |
| 20260505032324 | 17 | 212 | 1.6 | 6.4 | 0.00 | 0.00 | 0.00 | 56 | 1011.4 |
| 20260505031830 | 17 | 204 | 0.0 | 8.0 | 0.00 | 0.00 | 0.00 | 56 | 1011.5 |
| 20260505031354 | 17 | 203 | 1.6 | 8.0 | 0.00 | 0.00 | 0.00 | 56 | 1011.4 |
| 20260505030820 | 17 | 194 | 1.6 | 4.8 | 0.00 | 0.00 | 0.00 | 56 | 1011.6 |
| 20260505030346 | 17 | 192 | 1.6 | 4.8 | 0.00 | 0.00 | 0.00 | 57 | 1011.5 |
| 20260505025821 | 17 | 222 | 0.0 | 3.2 | 0.00 | 0.00 | 0.00 | 58 | 1011.4 |
| 20260505025327 | 17 | 222 | 0.0 | 3.2 | 0.00 | 0.00 | 0.00 | 57 | 1011.5 |
| 20260505024832 | 17 | 223 | 0.0 | 3.2 | 0.00 | 0.00 | 0.00 | 58 | 1011.5 |
| 20260505024357 | 17 | 223 | 0.0 | 1.6 | 0.00 | 0.00 | 0.00 | 58 | 1011.7 |
| 20260505023824 | 17 | 223 | 0.0 | 3.2 | 0.00 | 0.00 | 0.00 | 58 | 1011.5 |
| 20260505023329 | 17 | 223 | 0.0 | 3.2 | 0.00 | 0.00 | 0.00 | 56 | 1011.6 |
| 20260505022834 | 17 | 223 | 0.0 | 3.2 | 0.00 | 0.00 | 0.00 | 55 | 1011.6 |
| 20260505022323 | 17 | 223 | 0.0 | 4.8 | 0.00 | 0.00 | 0.00 | 54 | 1011.5 |
| 20260505021849 | 18 | 223 | 1.6 | 4.8 | 0.00 | 0.00 | 0.00 | 54 | 1011.5 |
| 20260505021333 | 18 | 223 | 1.6 | 4.8 | 0.00 | 0.00 | 0.00 | 53 | 1011.4 |
| 20260505020839 | 17 | 224 | 0.0 | 4.8 | 0.00 | 0.00 | 0.00 | 54 | 1011.4 |
| 20260505020326 | 17 | 224 | 0.0 | 4.8 | 0.00 | 0.00 | 0.00 | 55 | 1011.3 |
| 20260505015840 | 17 | 225 | 0.0 | 4.8 | 0.00 | 0.00 | 0.00 | 57 | 1011.3 |
| 20260505015347 | 18 | 225 | 0.0 | 4.8 | 0.00 | 0.00 | 0.00 | 55 | 1011.4 |
| 20260505014852 | 18 | 225 | 0.0 | 3.2 | 0.00 | 0.00 | 0.00 | 53 | 1011.4 |
| 20260505014336 | 18 | 225 | 0.0 | 0.0 | 0.00 | 0.00 | 0.00 | 53 | 1011.2 |
| 20260505013821 | 18 | 225 | 0.0 | 3.2 | 0.00 | 0.00 | 0.00 | 52 | 1011.2 |
| 20260505013328 | 18 | 225 | 0.0 | 3.2 | 0.00 | 0.00 | 0.00 | 50 | 1011.1 |
| 20260505012834 | 18 | 225 | 0.0 | 3.2 | 0.00 | 0.00 | 0.00 | 51 | 1011.0 |
| 20260505012321 | 18 | 225 | 0.0 | 3.2 | 0.00 | 0.00 | 0.00 | 50 | 1011.0 |
| 20260505011828 | 19 | 225 | 0.0 | 4.8 | 0.00 | 0.00 | 0.00 | 50 | 1011.0 |
| 20260505011337 | 19 | 225 | 0.0 | 4.8 | 0.00 | 0.00 | 0.00 | 49 | 1011.0 |
| 20260505010823 | 19 | 232 | 0.0 | 3.2 | 0.00 | 0.00 | 0.00 | 48 | 1010.8 |
| 20260505010330 | 19 | 232 | 0.0 | 1.6 | 0.00 | 0.00 | 0.00 | 48 | 1010.8 |
| 20260505005826 | 20 | 232 | 0.0 | 1.6 | 0.00 | 0.00 | 0.00 | 47 | 1010.7 |
| 20260505005331 | 20 | 232 | 0.0 | 3.2 | 0.00 | 0.00 | 0.00 | 46 | 1010.7 |
| 20260505004836 | 20 | 232 | 0.0 | 3.2 | 0.00 | 0.00 | 0.00 | 46 | 1010.7 |
| 20260505004342 | 20 | 232 | 0.0 | 3.2 | 0.00 | 0.00 | 0.00 | 46 | 1010.6 |
| 20260505003848 | 20 | 232 | 0.0 | 1.6 | 0.00 | 0.00 | 0.00 | 45 | 1010.5 |
| 20260505003333 | 20 | 232 | 0.0 | 6.4 | 0.00 | 0.00 | 0.00 | 45 | 1010.7 |
| 20260505002837 | 20 | 232 | 1.6 | 6.4 | 0.00 | 0.00 | 0.00 | 44 | 1010.7 |
| 20260505002323 | 21 | 221 | 0.0 | 6.4 | 0.00 | 0.00 | 0.00 | 43 | 1010.6 |
| 20260505001850 | 21 | 221 | 0.0 | 6.4 | 0.00 | 0.00 | 0.00 | 43 | 1010.6 |
| 20260505001334 | 21 | 209 | 0.0 | 8.0 | 0.00 | 0.00 | 0.00 | 42 | 1010.6 |
| 20260505000823 | 21 | 196 | 1.6 | 8.0 | 0.00 | 0.00 | 0.00 | 43 | 1010.6 |
| 20260505000330 | 21 | 213 | 1.6 | 9.7 | 0.00 | 0.00 | 0.00 | 43 | 1010.6 |
| 20260504235826 | 21 | 213 | 1.6 | 9.7 | 0.00 | 0.00 | 0.00 | 42 | 1010.6 |
| 20260504235333 | 21 | 213 | 0.0 | 11.3 | 0.00 | 0.00 | 0.00 | 42 | 1010.4 |
| 20260504234837 | 21 | 200 | 0.0 | 4.8 | 0.00 | 0.00 | 0.00 | 42 | 1010.4 |
| 20260504234322 | 21 | 198 | 1.6 | 14.5 | 0.00 | 0.00 | 0.00 | 42 | 1010.3 |
| 20260504233828 | 21 | 211 | 0.0 | 14.5 | 0.00 | 0.00 | 0.00 | 40 | 1010.3 |
| 20260504233334 | 22 | 204 | 0.0 | 12.9 | 0.00 | 0.00 | 0.00 | 40 | 1010.3 |
| 20260504232840 | 22 | 192 | 1.6 | 6.4 | 0.00 | 0.00 | 0.00 | 40 | 1010.4 |
| 20260504232325 | 22 | 152 | 3.2 | 16.1 | 0.00 | 0.00 | 0.00 | 39 | 1010.3 |
| 20260504231835 | 22 | 219 | 3.2 | 16.1 | 0.00 | 0.00 | 0.00 | 38 | 1010.4 |
| 20260504231401 | 22 | 194 | 4.8 | 14.5 | 0.00 | 0.00 | 0.00 | 39 | 1010.4 |
| 20260504230824 | 22 | 216 | 4.8 | 14.5 | 0.00 | 0.00 | 0.00 | 39 | 1010.4 |
| 20260504230331 | 22 | 132 | 3.2 | 22.5 | 0.00 | 0.00 | 0.00 | 38 | 1010.4 |
| 20260504225826 | 22 | 193 | 6.4 | 22.5 | 0.00 | 0.00 | 0.00 | 39 | 1010.4 |
| 20260504225331 | 23 | 212 | 3.2 | 9.7 | 0.00 | 0.00 | 0.00 | 39 | 1010.3 |
| 20260504224837 | 23 | 213 | 1.6 | 6.4 | 0.00 | 0.00 | 0.00 | 39 | 1010.5 |
| 20260504224322 | 23 | 225 | 1.6 | 11.3 | 0.00 | 0.00 | 0.00 | 38 | 1010.4 |
| 20260504223828 | 23 | 179 | 1.6 | 12.9 | 0.00 | 0.00 | 0.00 | 37 | 1010.3 |
| 20260504223334 | 23 | 207 | 6.4 | 12.9 | 0.00 | 0.00 | 0.00 | 36 | 1010.3 |
| 20260504222820 | 23 | 212 | 3.2 | 8.0 | 0.00 | 0.00 | 0.00 | 37 | 1010.4 |
| 20260504222330 | 23 | 187 | 1.6 | 8.0 | 0.00 | 0.00 | 0.00 | 37 | 1010.3 |
| 20260504221858 | 23 | 159 | 3.2 | 11.3 | 0.00 | 0.00 | 0.00 | 38 | 1010.3 |
| 20260504221321 | 23 | 152 | 4.8 | 22.5 | 0.00 | 0.00 | 0.00 | 37 | 1010.4 |
| 20260504220827 | 23 | 167 | 4.8 | 22.5 | 0.00 | 0.00 | 0.00 | 37 | 1010.4 |
| 20260504220333 | 23 | 207 | 4.8 | 11.3 | 0.00 | 0.00 | 0.00 | 37 | 1010.3 |
| 20260504215830 | 23 | 229 | 3.2 | 20.9 | 0.00 | 0.00 | 0.00 | 36 | 1010.2 |
| 20260504215336 | 23 | 213 | 8.0 | 20.9 | 0.00 | 0.00 | 0.00 | 35 | 1010.3 |
| 20260504214822 | 23 | 201 | 6.4 | 14.5 | 0.00 | 0.00 | 0.00 | 36 | 1010.4 |
| 20260504214329 | 23 | 257 | 1.6 | 12.9 | 0.00 | 0.00 | 0.00 | 39 | 1010.4 |
| 20260504213836 | 23 | 209 | 4.8 | 12.9 | 0.00 | 0.00 | 0.00 | 36 | 1010.4 |
| 20260504213321 | 23 | 188 | 1.6 | 17.7 | 0.00 | 0.00 | 0.00 | 35 | 1010.4 |
| 20260504212327 | 23 | 190 | 3.2 | 19.3 | 0.00 | 0.00 | 0.00 | 37 | 1010.4 |
| 20260504211833 | 23 | 196 | 3.2 | 17.7 | 0.00 | 0.00 | 0.00 | 35 | 1010.4 |
| 20260504211339 | 23 | 215 | 8.0 | 17.7 | 0.00 | 0.00 | 0.00 | 34 | 1010.4 |
| 20260504210822 | 23 | 228 | 4.8 | 16.1 | 0.00 | 0.00 | 0.00 | 35 | 1010.4 |
| 20260504210326 | 23 | 200 | 6.4 | 16.1 | 0.00 | 0.00 | 0.00 | 35 | 1010.4 |
| 20260504205821 | 23 | 224 | 6.4 | 16.1 | 0.00 | 0.00 | 0.00 | 37 | 1010.4 |
| 20260504205328 | 23 | 225 | 8.0 | 16.1 | 0.00 | 0.00 | 0.00 | 35 | 1010.4 |
| 20260504204833 | 23 | 184 | 4.8 | 19.3 | 0.00 | 0.00 | 0.00 | 35 | 1010.4 |
| 20260504204358 | 23 | 167 | 8.0 | 19.3 | 0.00 | 0.00 | 0.00 | 35 | 1010.3 |
| 20260504203822 | 24 | 199 | 6.4 | 19.3 | 0.00 | 0.00 | 0.00 | 36 | 1010.3 |
| 20260504203328 | 23 | 177 | 4.8 | 12.9 | 0.00 | 0.00 | 0.00 | 38 | 1010.4 |
| 20260504202838 | 23 | 236 | 1.6 | 12.9 | 0.00 | 0.00 | 0.00 | 38 | 1010.5 |
| 20260504202344 | 23 | 231 | 6.4 | 29.0 | 0.00 | 0.00 | 0.00 | 36 | 1010.6 |
| 20260504201828 | 23 | 205 | 11.3 | 29.0 | 0.00 | 0.00 | 0.00 | 35 | 1010.6 |
| 20260504201335 | 23 | 193 | 8.0 | 14.5 | 0.00 | 0.00 | 0.00 | 36 | 1010.7 |
| 20260504200821 | 23 | 177 | 4.8 | 22.5 | 0.00 | 0.00 | 0.00 | 36 | 1010.8 |
| 20260504200327 | 23 | 202 | 9.7 | 22.5 | 0.00 | 0.00 | 0.00 | 35 | 1010.9 |